GPS BIII-3 (PRN 23)

Last updated on Nov. 24, 2020, 6:03 a.m. UTC

1 45854U 20041A   20328.52252893  .00000031  00000-0  00000-0 0  9998
2 45854  55.1344 109.1001 0009096 127.5392 232.5294  2.00568810  3285
UTC
Height (km)
Latitude
Longitude
Inclination
Orbital Period
UTC large
Height (km)
Speed (km/s)
/
Latitude / Longitude
Inclination (degrees)
Orbital Period (minutes)
Azimuth
Elevation
Range (km)
Doppler Factor
iOS Compass Heading
iOS Angle

Next 30 passes for location: Hong Kong

Rise time Rise Azimuth (degrees) Set time Set Azimuth (degrees) Duration Max altitude (degrees)

No matching passes for this satellites